Time,TemperatureF,DewpointF,PressureIn,WindDirection,WindDirectionDegrees,WindSpeedMPH,WindSpeedGustMPH,Humidity,HourlyPrecipIn,Conditions,Clouds,dailyrainin,SoftwareType,DateUTC
2013-11-26 00:00:00,32.6,22.1,30.21,WSW,237,0.0,3.0,65,0.00,,,0.00,VWS V14.01,2013-11-26 06:00:00,
2013-11-26 00:03:00,32.7,22.2,30.21,WSW,237,0.0,0.0,65,0.00,,,0.00,VWS V14.01,2013-11-26 06:03:00,
2013-11-26 00:08:00,32.7,21.9,30.20,WSW,237,0.0,1.0,64,0.00,,,0.00,VWS V14.01,2013-11-26 06:08:00,
2013-11-26 00:13:00,32.8,22.0,30.20,WSW,237,0.0,1.0,64,0.00,,,0.00,VWS V14.01,2013-11-26 06:13:00,
2013-11-26 00:18:00,32.8,22.3,30.19,WSW,237,0.0,1.0,65,0.00,,,0.00,VWS V14.01,2013-11-26 06:18:00,
2013-11-26 00:23:00,32.8,22.3,30.19,WSW,237,0.0,1.0,65,0.00,,,0.00,VWS V14.01,2013-11-26 06:23:00,
2013-11-26 00:28:00,32.8,22.3,30.19,WSW,237,0.0,1.0,65,0.00,,,0.00,VWS V14.01,2013-11-26 06:28:00,
2013-11-26 00:30:00,32.8,22.3,30.19,WSW,237,0.0,1.0,65,0.00,,,0.00,VWS V14.01,2013-11-26 06:30:00,
2013-11-26 00:33:00,32.7,22.2,30.19,WSW,237,0.0,0.0,65,0.00,,,0.00,VWS V14.01,2013-11-26 06:33:00,
2013-11-26 00:38:00,32.5,22.4,30.18,WSW,237,0.0,1.0,66,0.00,,,0.00,VWS V14.01,2013-11-26 06:38:00,
2013-11-26 00:43:00,32.2,22.5,30.18,WSW,237,0.0,1.0,67,0.00,,,0.00,VWS V14.01,2013-11-26 06:43:00,
2013-11-26 00:48:00,31.9,22.2,30.18,WSW,237,0.0,1.0,67,0.00,,,0.00,VWS V14.01,2013-11-26 06:48:00,
2013-11-26 00:53:00,31.7,22.0,30.18,WSW,237,0.0,1.0,67,0.00,,,0.00,VWS V14.01,2013-11-26 06:53:00,
2013-11-26 00:58:00,31.5,22.2,30.18,WSW,237,0.0,1.0,68,0.00,,,0.00,VWS V14.01,2013-11-26 06:58:00,
2013-11-26 01:00:00,31.4,22.1,30.18,WSW,237,0.0,1.0,68,0.00,,,0.00,VWS V14.01,2013-11-26 07:00:00,
2013-11-26 01:03:00,31.4,22.1,30.18,WSW,237,0.0,0.0,68,0.00,,,0.00,VWS V14.01,2013-11-26 07:03:00,
2013-11-26 01:08:00,31.1,21.8,30.17,WSW,237,0.0,0.0,68,0.00,,,0.00,VWS V14.01,2013-11-26 07:08:00,
2013-11-26 01:13:00,31.1,21.8,30.17,WSW,237,0.0,0.0,68,0.00,,,0.00,VWS V14.01,2013-11-26 07:13:00,
2013-11-26 01:18:00,31.0,21.7,30.17,WSW,237,0.0,0.0,68,0.00,,,0.00,VWS V14.01,2013-11-26 07:18:00,
2013-11-26 01:23:00,30.9,21.6,30.18,WSW,237,0.0,0.0,68,0.00,,,0.00,VWS V14.01,2013-11-26 07:23:00,
2013-11-26 01:28:00,30.7,21.8,30.18,WSW,237,1.0,2.0,69,0.00,,,0.00,VWS V14.01,2013-11-26 07:28:00,
2013-11-26 01:30:00,30.7,21.8,30.18,WSW,237,1.0,2.0,69,0.00,,,0.00,VWS V14.01,2013-11-26 07:30:00,
2013-11-26 01:33:00,30.7,21.8,30.18,WSW,237,0.0,1.0,69,0.00,,,0.00,VWS V14.01,2013-11-26 07:33:00,
2013-11-26 01:38:00,30.7,21.8,30.18,WSW,237,0.0,1.0,69,0.00,,,0.00,VWS V14.01,2013-11-26 07:38:00,
2013-11-26 01:43:00,30.6,21.6,30.18,WSW,237,0.0,1.0,69,0.00,,,0.00,VWS V14.01,2013-11-26 07:43:00,
2013-11-26 01:48:00,30.6,21.6,30.17,WSW,237,0.0,1.0,69,0.00,,,0.00,VWS V14.01,2013-11-26 07:48:00,
2013-11-26 01:53:00,30.4,21.5,30.17,WSW,237,0.0,1.0,69,0.00,,,0.00,VWS V14.01,2013-11-26 07:53:00,
2013-11-26 01:58:00,30.1,21.2,30.17,WSW,237,0.0,1.0,69,0.00,,,0.00,VWS V14.01,2013-11-26 07:58:00,
2013-11-26 02:00:00,30.1,21.5,30.17,WSW,237,0.0,1.0,70,0.00,,,0.00,VWS V14.01,2013-11-26 08:00:00,
2013-11-26 02:03:00,29.9,21.3,30.17,WSW,237,0.0,0.0,70,0.00,,,0.00,VWS V14.01,2013-11-26 08:03:00,
2013-11-26 02:08:00,29.9,21.3,30.17,WSW,238,0.0,0.0,70,0.00,,,0.00,VWS V14.01,2013-11-26 08:08:00,
2013-11-26 02:13:00,29.9,21.3,30.18,WSW,237,0.0,1.0,70,0.00,,,0.00,VWS V14.01,2013-11-26 08:13:00,
2013-11-26 02:18:00,29.9,21.3,30.18,WSW,237,0.0,1.0,70,0.00,,,0.00,VWS V14.01,2013-11-26 08:18:00,
2013-11-26 02:23:00,29.9,21.3,30.18,WSW,237,0.0,1.0,70,0.00,,,0.00,VWS V14.01,2013-11-26 08:23:00,
2013-11-26 02:28:00,29.8,21.2,30.18,WSW,237,0.0,1.0,70,0.00,,,0.00,VWS V14.01,2013-11-26 08:28:00,
2013-11-26 02:30:00,29.8,21.2,30.18,WSW,237,0.0,1.0,70,0.00,,,0.00,VWS V14.01,2013-11-26 08:30:00,
2013-11-26 02:33:00,29.8,21.2,30.18,WSW,237,0.0,0.0,70,0.00,,,0.00,VWS V14.01,2013-11-26 08:33:00,
2013-11-26 02:38:00,29.7,21.5,30.18,WSW,237,0.0,0.0,71,0.00,,,0.00,VWS V14.01,2013-11-26 08:38:00,
2013-11-26 02:43:00,29.4,21.5,30.18,WSW,237,1.0,2.0,72,0.00,,,0.00,VWS V14.01,2013-11-26 08:43:00,
2013-11-26 02:48:00,29.3,21.7,30.18,WSW,237,0.0,2.0,73,0.00,,,0.00,VWS V14.01,2013-11-26 08:48:00,
2013-11-26 02:53:00,29.1,21.5,30.18,WSW,237,0.0,2.0,73,0.00,,,0.00,VWS V14.01,2013-11-26 08:53:00,
2013-11-26 02:58:00,29.0,21.4,30.18,WSW,237,0.0,2.0,73,0.00,,,0.00,VWS V14.01,2013-11-26 08:58:00,
2013-11-26 03:00:00,29.0,21.4,30.18,WSW,237,0.0,2.0,73,0.00,,,0.00,VWS V14.01,2013-11-26 09:00:00,
2013-11-26 03:03:00,29.0,21.4,30.18,WSW,237,0.0,0.0,73,0.00,,,0.00,VWS V14.01,2013-11-26 09:03:00,
2013-11-26 03:08:00,28.8,21.2,30.18,WSW,237,0.0,0.0,73,0.00,,,0.00,VWS V14.01,2013-11-26 09:08:00,
2013-11-26 03:13:00,28.4,20.9,30.18,WSW,237,0.0,0.0,73,0.00,,,0.00,VWS V14.01,2013-11-26 09:13:00,
2013-11-26 03:18:00,28.1,20.9,30.18,WSW,237,0.0,0.0,74,0.00,,,0.00,VWS V14.01,2013-11-26 09:18:00,
2013-11-26 03:23:00,28.0,21.1,30.18,WSW,237,1.0,1.0,75,0.00,,,0.00,VWS V14.01,2013-11-26 09:23:00,
2013-11-26 03:28:00,27.9,21.0,30.18,WSW,237,0.0,1.0,75,0.00,,,0.00,VWS V14.01,2013-11-26 09:28:00,
2013-11-26 03:30:00,27.8,20.9,30.18,WSW,237,0.0,1.0,75,0.00,,,0.00,VWS V14.01,2013-11-26 09:30:00,
2013-11-26 03:34:00,27.8,21.2,30.18,WSW,237,0.0,0.0,76,0.00,,,0.00,VWS V14.01,2013-11-26 09:34:00,
2013-11-26 03:39:00,28.0,21.4,30.17,WSW,237,0.0,2.0,76,0.00,,,0.00,VWS V14.01,2013-11-26 09:39:00,
2013-11-26 03:44:00,28.1,21.5,30.17,WSW,237,0.0,2.0,76,0.00,,,0.00,VWS V14.01,2013-11-26 09:44:00,
2013-11-26 03:49:00,28.1,21.5,30.17,WSW,237,1.0,2.0,76,0.00,,,0.00,VWS V14.01,2013-11-26 09:49:00,
2013-11-26 03:54:00,27.9,21.3,30.17,WSW,237,1.0,2.0,76,0.00,,,0.00,VWS V14.01,2013-11-26 09:54:00,
2013-11-26 03:59:00,27.6,21.4,30.17,WSW,237,1.0,2.0,77,0.00,,,0.00,VWS V14.01,2013-11-26 09:59:00,
2013-11-26 04:00:00,27.5,21.5,30.17,WSW,237,0.0,2.0,78,0.00,,,0.00,VWS V14.01,2013-11-26 10:00:00,
2013-11-26 04:04:00,27.4,21.5,30.17,WSW,237,0.0,0.0,78,0.00,,,0.00,VWS V14.01,2013-11-26 10:04:00,
2013-11-26 04:09:00,27.3,21.4,30.17,WSW,238,1.0,2.0,78,0.00,,,0.00,VWS V14.01,2013-11-26 10:09:00,
2013-11-26 04:14:00,27.3,21.4,30.17,WSW,237,0.0,2.0,78,0.00,,,0.00,VWS V14.01,2013-11-26 10:14:00,
2013-11-26 04:19:00,27.4,21.5,30.17,WSW,237,0.0,2.0,78,0.00,,,0.00,VWS V14.01,2013-11-26 10:19:00,
2013-11-26 04:24:00,27.4,21.5,30.17,WSW,237,0.0,2.0,78,0.00,,,0.00,VWS V14.01,2013-11-26 10:24:00,
2013-11-26 04:29:00,27.5,21.2,30.17,WSW,237,0.0,2.0,77,0.00,,,0.00,VWS V14.01,2013-11-26 10:29:00,
2013-11-26 04:30:00,27.4,21.5,30.17,WSW,237,0.0,2.0,78,0.00,,,0.00,VWS V14.01,2013-11-26 10:30:00,
2013-11-26 04:34:00,27.4,21.5,30.17,WSW,237,0.0,0.0,78,0.00,,,0.00,VWS V14.01,2013-11-26 10:34:00,
2013-11-26 04:39:00,27.3,21.4,30.17,WSW,237,0.0,1.0,78,0.00,,,0.00,VWS V14.01,2013-11-26 10:39:00,
2013-11-26 04:44:00,27.2,21.3,30.17,WSW,237,0.0,1.0,78,0.00,,,0.00,VWS V14.01,2013-11-26 10:44:00,
2013-11-26 04:49:00,27.6,22.0,30.16,WSW,256,3.0,5.0,79,0.00,,,0.00,VWS V14.01,2013-11-26 10:49:00,
2013-11-26 04:54:00,28.2,21.9,30.16,West,270,4.0,5.0,77,0.00,,,0.00,VWS V14.01,2013-11-26 10:54:00,
2013-11-26 04:59:00,28.6,22.0,30.16,West,277,5.0,6.0,76,0.00,,,0.00,VWS V14.01,2013-11-26 10:59:00,
2013-11-26 05:00:00,28.7,22.1,30.16,West,277,4.0,6.0,76,0.00,,,0.00,VWS V14.01,2013-11-26 11:00:00,
2013-11-26 05:04:00,28.6,21.4,30.16,West,277,0.0,5.0,74,0.00,,,0.00,VWS V14.01,2013-11-26 11:04:00,
2013-11-26 05:09:00,28.0,20.8,30.16,West,277,0.0,5.0,74,0.00,,,0.00,VWS V14.01,2013-11-26 11:09:00,
2013-11-26 05:14:00,27.4,20.5,30.16,West,277,0.0,5.0,75,0.00,,,0.00,VWS V14.01,2013-11-26 11:14:00,
2013-11-26 05:19:00,27.2,21.3,30.16,West,277,2.0,5.0,78,0.00,,,0.00,VWS V14.01,2013-11-26 11:19:00,
2013-11-26 05:24:00,27.6,21.6,30.16,West,277,1.0,5.0,78,0.00,,,0.00,VWS V14.01,2013-11-26 11:24:00,
2013-11-26 05:29:00,27.7,21.4,30.16,West,277,0.0,5.0,77,0.00,,,0.00,VWS V14.01,2013-11-26 11:29:00,
2013-11-26 05:30:00,27.6,21.0,30.15,West,277,0.0,5.0,76,0.00,,,0.00,VWS V14.01,2013-11-26 11:30:00,
2013-11-26 05:34:00,27.3,20.8,30.16,West,277,0.0,1.0,76,0.00,,,0.00,VWS V14.01,2013-11-26 11:34:00,
2013-11-26 05:39:00,26.9,20.7,30.15,West,277,0.0,4.0,77,0.00,,,0.00,VWS V14.01,2013-11-26 11:39:00,
2013-11-26 05:44:00,26.5,20.3,30.15,West,277,0.0,4.0,77,0.00,,,0.00,VWS V14.01,2013-11-26 11:44:00,
2013-11-26 05:49:00,26.2,20.3,30.14,West,277,0.0,4.0,78,0.00,,,0.00,VWS V14.01,2013-11-26 11:49:00,
2013-11-26 05:54:00,25.8,20.2,30.14,West,277,0.0,4.0,79,0.00,,,0.00,VWS V14.01,2013-11-26 11:54:00,
2013-11-26 05:59:00,25.6,20.3,30.14,West,277,0.0,4.0,80,0.00,,,0.00,VWS V14.01,2013-11-26 11:59:00,
2013-11-26 06:00:00,25.5,20.2,30.14,West,277,0.0,4.0,80,0.00,,,0.00,VWS V14.01,2013-11-26 12:00:00,
2013-11-26 06:04:00,25.6,20.6,30.14,West,277,0.0,2.0,81,0.00,,,0.00,VWS V14.01,2013-11-26 12:04:00,
2013-11-26 06:09:00,25.8,20.8,30.14,West,277,0.0,2.0,81,0.00,,,0.00,VWS V14.01,2013-11-26 12:09:00,
2013-11-26 06:14:00,25.7,20.4,30.14,West,277,0.0,2.0,80,0.00,,,0.00,VWS V14.01,2013-11-26 12:14:00,
2013-11-26 06:19:00,25.5,20.2,30.14,West,277,0.0,2.0,80,0.00,,,0.00,VWS V14.01,2013-11-26 12:19:00,
2013-11-26 06:24:00,25.3,20.0,30.14,West,277,0.0,2.0,80,0.00,,,0.00,VWS V14.01,2013-11-26 12:24:00,
2013-11-26 06:29:00,25.0,19.7,30.15,West,277,0.0,2.0,80,0.00,,,0.00,VWS V14.01,2013-11-26 12:29:00,
2013-11-26 06:30:00,24.9,19.6,30.15,West,277,2.0,2.0,80,0.00,,,0.00,VWS V14.01,2013-11-26 12:30:00,
2013-11-26 06:34:00,25.1,20.4,30.15,West,277,0.0,4.0,82,0.00,,,0.00,VWS V14.01,2013-11-26 12:34:00,
2013-11-26 06:39:00,25.2,20.2,30.15,West,277,0.0,4.0,81,0.00,,,0.00,VWS V14.01,2013-11-26 12:39:00,
2013-11-26 06:44:00,24.9,19.9,30.15,West,277,0.0,4.0,81,0.00,,,0.00,VWS V14.01,2013-11-26 12:44:00,
2013-11-26 06:49:00,24.6,19.6,30.16,West,277,0.0,4.0,81,0.00,,,0.00,VWS V14.01,2013-11-26 12:49:00,
2013-11-26 06:54:00,24.6,19.9,30.16,West,277,0.0,4.0,82,0.00,,,0.00,VWS V14.01,2013-11-26 12:54:00,
2013-11-26 06:59:00,24.5,19.8,30.17,West,277,0.0,4.0,82,0.00,,,0.00,VWS V14.01,2013-11-26 12:59:00,
2013-11-26 07:00:00,24.5,19.8,30.17,West,277,1.0,4.0,82,0.00,,,0.00,VWS V14.01,2013-11-26 13:00:00,
2013-11-26 07:04:00,24.4,19.7,30.17,West,277,0.0,1.0,82,0.00,,,0.00,VWS V14.01,2013-11-26 13:04:00,
2013-11-26 07:09:00,24.2,19.8,30.17,West,277,0.0,1.0,83,0.00,,,0.00,VWS V14.01,2013-11-26 13:09:00,
2013-11-26 07:14:00,24.3,20.2,30.17,West,277,0.0,1.0,84,0.00,,,0.00,VWS V14.01,2013-11-26 13:14:00,
2013-11-26 07:19:00,24.8,20.9,30.17,West,277,0.0,1.0,85,0.00,,,0.00,VWS V14.01,2013-11-26 13:19:00,
2013-11-26 07:24:00,25.1,21.0,30.17,West,277,0.0,1.0,84,0.00,,,0.00,VWS V14.01,2013-11-26 13:24:00,
2013-11-26 07:29:00,25.2,20.8,30.16,West,277,0.0,1.0,83,0.00,,,0.00,VWS V14.01,2013-11-26 13:29:00,
2013-11-26 07:30:00,25.3,20.9,30.16,West,277,0.0,1.0,83,0.00,,,0.00,VWS V14.01,2013-11-26 13:30:00,
2013-11-26 07:34:00,25.6,21.5,30.16,West,277,0.0,0.0,84,0.00,,,0.00,VWS V14.01,2013-11-26 13:34:00,
2013-11-26 07:39:00,25.8,21.6,30.17,West,277,0.0,0.0,84,0.00,,,0.00,VWS V14.01,2013-11-26 13:39:00,
2013-11-26 07:44:00,26.1,21.6,30.16,West,277,0.0,1.0,83,0.00,,,0.00,VWS V14.01,2013-11-26 13:44:00,
2013-11-26 07:49:00,26.1,21.4,30.15,West,277,1.0,2.0,82,0.00,,,0.00,VWS V14.01,2013-11-26 13:49:00,
2013-11-26 07:54:00,26.2,21.8,30.15,West,277,0.0,2.0,83,0.00,,,0.00,VWS V14.01,2013-11-26 13:54:00,
2013-11-26 07:59:00,26.6,22.4,30.16,West,277,2.0,4.0,84,0.00,,,0.00,VWS V14.01,2013-11-26 13:59:00,
2013-11-26 08:00:00,26.8,22.6,30.16,West,277,4.0,5.0,84,0.00,,,0.00,VWS V14.01,2013-11-26 14:00:00,
2013-11-26 08:04:00,27.8,23.6,30.16,West,277,2.0,5.0,84,0.00,,,0.00,VWS V14.01,2013-11-26 14:04:00,
2013-11-26 08:09:00,28.9,24.1,30.16,West,277,2.0,5.0,82,0.00,,,0.00,VWS V14.01,2013-11-26 14:09:00,
2013-11-26 08:14:00,29.7,24.6,30.15,West,277,2.0,6.0,81,0.00,,,0.00,VWS V14.01,2013-11-26 14:14:00,
2013-11-26 08:19:00,30.3,24.6,30.16,WNW,285,2.0,9.0,79,0.00,,,0.00,VWS V14.01,2013-11-26 14:19:00,
2013-11-26 08:24:00,30.7,24.4,30.15,WNW,292,0.0,12.0,77,0.00,,,0.00,VWS V14.01,2013-11-26 14:24:00,
2013-11-26 08:29:00,31.0,25.0,30.16,WNW,291,4.0,12.0,78,0.00,,,0.00,VWS V14.01,2013-11-26 14:29:00,
2013-11-26 08:30:00,31.0,24.6,30.16,WNW,293,5.0,12.0,77,0.00,,,0.00,VWS V14.01,2013-11-26 14:30:00,
2013-11-26 08:34:00,31.1,24.8,30.16,WNW,293,5.0,8.0,77,0.00,,,0.00,VWS V14.01,2013-11-26 14:34:00,
2013-11-26 08:39:00,31.0,24.6,30.16,WNW,286,2.0,14.0,77,0.00,,,0.00,VWS V14.01,2013-11-26 14:39:00,
2013-11-26 08:44:00,30.8,24.5,30.17,West,261,4.0,14.0,77,0.00,,,0.00,VWS V14.01,2013-11-26 14:44:00,
2013-11-26 08:49:00,30.8,24.8,30.18,WNW,290,4.0,14.0,78,0.00,,,0.00,VWS V14.01,2013-11-26 14:49:00,
2013-11-26 08:54:00,30.9,24.9,30.18,WNW,290,5.0,14.0,78,0.00,,,0.00,VWS V14.01,2013-11-26 14:54:00,
2013-11-26 08:59:00,31.1,25.0,30.18,WNW,290,1.0,14.0,78,0.00,,,0.00,VWS V14.01,2013-11-26 14:59:00,
2013-11-26 09:00:00,31.1,25.1,30.18,WNW,290,1.0,14.0,78,0.00,,,0.00,VWS V14.01,2013-11-26 15:00:00,
2013-11-26 09:04:00,31.2,25.1,30.18,WSW,242,4.0,7.0,78,0.00,,,0.00,VWS V14.01,2013-11-26 15:04:00,
2013-11-26 09:09:00,31.4,25.0,30.19,WNW,302,6.0,9.0,77,0.00,,,0.00,VWS V14.01,2013-11-26 15:09:00,
2013-11-26 09:14:00,31.4,25.0,30.19,West,277,2.0,9.0,77,0.00,,,0.00,VWS V14.01,2013-11-26 15:14:00,
2013-11-26 09:19:00,31.5,25.1,30.18,WNW,298,5.0,9.0,77,0.00,,,0.00,VWS V14.01,2013-11-26 15:19:00,
2013-11-26 09:24:00,31.6,25.2,30.19,WNW,293,4.0,9.0,77,0.00,,,0.00,VWS V14.01,2013-11-26 15:24:00,
2013-11-26 09:29:00,31.7,25.3,30.19,WNW,293,5.0,9.0,77,0.00,,,0.00,VWS V14.01,2013-11-26 15:29:00,
2013-11-26 09:30:00,31.7,25.3,30.19,WNW,293,2.0,9.0,77,0.00,,,0.00,VWS V14.01,2013-11-26 15:30:00,
2013-11-26 09:34:00,31.8,25.1,30.18,WNW,293,1.0,7.0,76,0.00,,,0.00,VWS V14.01,2013-11-26 15:34:00,
2013-11-26 09:39:00,32.0,25.3,30.18,NW,306,11.0,11.0,76,0.00,,,0.00,VWS V14.01,2013-11-26 15:39:00,
2013-11-26 09:44:00,32.1,25.4,30.18,NW,306,0.0,11.0,76,0.00,,,0.00,VWS V14.01,2013-11-26 15:44:00,
2013-11-26 09:49:00,32.2,25.5,30.18,NW,305,0.0,11.0,76,0.00,,,0.00,VWS V14.01,2013-11-26 15:49:00,
2013-11-26 09:54:00,32.4,25.7,30.19,NW,305,2.0,11.0,76,0.00,,,0.00,VWS V14.01,2013-11-26 15:54:00,
2013-11-26 09:59:00,32.6,25.6,30.19,WNW,290,2.0,11.0,75,0.00,,,0.00,VWS V14.01,2013-11-26 15:59:00,
2013-11-26 10:00:00,32.6,25.6,30.19,WNW,290,2.0,11.0,75,0.00,,,0.00,VWS V14.01,2013-11-26 16:00:00,
2013-11-26 10:04:00,32.9,25.9,30.18,WNW,290,4.0,4.0,75,0.00,,,0.00,VWS V14.01,2013-11-26 16:04:00,
2013-11-26 10:14:00,33.3,25.9,30.18,WNW,293,0.0,7.0,74,0.00,,,0.00,VWS V14.01,2013-11-26 16:14:00,
2013-11-26 10:19:00,33.5,26.4,30.18,WNW,294,2.0,7.0,75,0.00,,,0.00,VWS V14.01,2013-11-26 16:19:00,
2013-11-26 10:24:00,33.9,26.5,30.18,NW,317,1.0,8.0,74,0.00,,,0.00,VWS V14.01,2013-11-26 16:24:00,
2013-11-26 10:29:00,34.4,27.0,30.17,NW,317,4.0,8.0,74,0.00,,,0.00,VWS V14.01,2013-11-26 16:29:00,
2013-11-26 10:30:00,34.5,26.8,30.17,NW,317,5.0,8.0,73,0.00,,,0.00,VWS V14.01,2013-11-26 16:30:00,
2013-11-26 10:34:00,34.9,26.8,30.17,North,355,4.0,5.0,72,0.00,,,0.00,VWS V14.01,2013-11-26 16:34:00,
2013-11-26 10:39:00,35.4,27.3,30.17,NNW,330,6.0,6.0,72,0.00,,,0.00,VWS V14.01,2013-11-26 16:39:00,
2013-11-26 10:44:00,35.5,27.0,30.18,NW,312,8.0,14.0,71,0.00,,,0.00,VWS V14.01,2013-11-26 16:44:00,
2013-11-26 10:50:00,35.5,27.0,30.18,West,268,2.0,14.0,71,0.00,,,0.00,VWS V14.01,2013-11-26 16:50:00,
2013-11-26 10:55:00,36.1,28.0,30.18,North,360,1.0,14.0,72,0.00,,,0.00,VWS V14.01,2013-11-26 16:55:00,
2013-11-26 11:00:00,36.7,27.9,30.18,NE,38,0.0,14.0,70,0.00,,,0.00,VWS V14.01,2013-11-26 17:00:00,
2013-11-26 11:05:00,37.0,27.4,30.19,WNW,288,2.0,7.0,68,0.00,,,0.00,VWS V14.01,2013-11-26 17:05:00,
2013-11-26 11:10:00,37.1,27.5,30.19,WNW,290,2.0,7.0,68,0.00,,,0.00,VWS V14.01,2013-11-26 17:10:00,
2013-11-26 11:15:00,37.2,27.3,30.19,WNW,300,9.0,9.0,67,0.00,,,0.00,VWS V14.01,2013-11-26 17:15:00,
2013-11-26 11:20:00,37.1,27.2,30.18,WNW,287,6.0,11.0,67,0.00,,,0.00,VWS V14.01,2013-11-26 17:20:00,
2013-11-26 11:25:00,37.2,26.9,30.18,NE,41,2.0,11.0,66,0.00,,,0.00,VWS V14.01,2013-11-26 17:25:00,
2013-11-26 11:30:00,37.1,25.7,30.18,WSW,251,7.0,16.0,63,0.00,,,0.00,VWS V14.01,2013-11-26 17:30:00,
2013-11-26 11:35:00,36.9,25.9,30.18,West,271,4.0,13.0,64,0.00,,,0.00,VWS V14.01,2013-11-26 17:35:00,
2013-11-26 11:40:00,37.0,25.6,30.18,WNW,289,6.0,13.0,63,0.00,,,0.00,VWS V14.01,2013-11-26 17:40:00,
2013-11-26 11:45:00,36.9,25.9,30.17,NW,314,5.0,13.0,64,0.00,,,0.00,VWS V14.01,2013-11-26 17:45:00,
2013-11-26 11:50:00,36.9,25.1,30.17,NW,307,5.0,13.0,62,0.00,,,0.00,VWS V14.01,2013-11-26 17:50:00,
2013-11-26 11:55:00,36.9,25.5,30.17,WNW,301,11.0,20.0,63,0.00,,,0.00,VWS V14.01,2013-11-26 17:55:00,
2013-11-26 12:00:00,37.0,25.6,30.18,NW,314,2.0,20.0,63,0.00,,,0.00,VWS V14.01,2013-11-26 18:00:00,
2013-11-26 12:05:00,36.9,25.1,30.18,NW,323,13.0,18.0,62,0.00,,,0.00,VWS V14.01,2013-11-26 18:05:00,
2013-11-26 12:10:00,36.6,24.4,30.18,WSW,245,7.0,18.0,61,0.00,,,0.00,VWS V14.01,2013-11-26 18:10:00,
2013-11-26 12:15:00,36.4,24.6,30.17,WSW,248,12.0,18.0,62,0.00,,,0.00,VWS V14.01,2013-11-26 18:15:00,
2013-11-26 12:20:00,36.3,25.3,30.17,West,273,5.0,18.0,64,0.00,,,0.00,VWS V14.01,2013-11-26 18:20:00,
2013-11-26 12:25:00,36.3,25.3,30.17,WNW,297,6.0,18.0,64,0.00,,,0.00,VWS V14.01,2013-11-26 18:25:00,
2013-11-26 12:30:00,36.3,25.3,30.17,WNW,284,1.0,18.0,64,0.00,,,0.00,VWS V14.01,2013-11-26 18:30:00,
2013-11-26 12:35:00,36.5,25.5,30.17,West,281,6.0,13.0,64,0.00,,,0.00,VWS V14.01,2013-11-26 18:35:00,
2013-11-26 12:40:00,36.4,25.4,30.17,WNW,298,6.0,19.0,64,0.00,,,0.00,VWS V14.01,2013-11-26 18:40:00,
2013-11-26 12:45:00,36.3,25.3,30.16,WNW,282,6.0,19.0,64,0.00,,,0.00,VWS V14.01,2013-11-26 18:45:00,
2013-11-26 12:50:00,36.2,25.2,30.16,NNW,341,1.0,19.0,64,0.00,,,0.00,VWS V14.01,2013-11-26 18:50:00,
2013-11-26 12:55:00,36.3,25.3,30.16,NW,309,7.0,19.0,64,0.00,,,0.00,VWS V14.01,2013-11-26 18:55:00,
2013-11-26 13:00:00,36.3,25.7,30.17,WNW,299,9.0,19.0,65,0.00,,,0.00,VWS V14.01,2013-11-26 19:00:00,
2013-11-26 13:05:00,36.1,25.1,30.17,WNW,285,13.0,13.0,64,0.00,,,0.00,VWS V14.01,2013-11-26 19:05:00,
2013-11-26 13:10:00,35.9,24.9,30.17,North,360,7.0,19.0,64,0.00,,,0.00,VWS V14.01,2013-11-26 19:10:00,
2013-11-26 13:15:00,35.6,24.6,30.17,WNW,300,12.0,19.0,64,0.00,,,0.00,VWS V14.01,2013-11-26 19:15:00,
2013-11-26 13:20:00,35.5,24.2,30.17,NNW,340,4.0,19.0,63,0.00,,,0.00,VWS V14.01,2013-11-26 19:20:00,
2013-11-26 13:25:00,35.5,23.8,30.17,West,267,6.0,19.0,62,0.00,,,0.00,VWS V14.01,2013-11-26 19:25:00,
2013-11-26 13:30:00,35.6,24.3,30.17,WNW,294,4.0,19.0,63,0.00,,,0.00,VWS V14.01,2013-11-26 19:30:00,
2013-11-26 13:35:00,35.7,24.4,30.17,NW,317,1.0,9.0,63,0.00,,,0.00,VWS V14.01,2013-11-26 19:35:00,
2013-11-26 13:40:00,35.7,24.0,30.17,WNW,292,9.0,14.0,62,0.00,,,0.00,VWS V14.01,2013-11-26 19:40:00,
2013-11-26 13:45:00,35.4,23.7,30.17,WNW,303,1.0,14.0,62,0.00,,,0.00,VWS V14.01,2013-11-26 19:45:00,
2013-11-26 13:50:00,35.3,23.6,30.18,WNW,283,11.0,14.0,62,0.00,,,0.00,VWS V14.01,2013-11-26 19:50:00,
2013-11-26 13:55:00,35.3,23.6,30.17,WNW,298,2.0,14.0,62,0.00,,,0.00,VWS V14.01,2013-11-26 19:55:00,
2013-11-26 14:00:00,35.3,23.2,30.18,WNW,295,8.0,14.0,61,0.00,,,0.00,VWS V14.01,2013-11-26 20:00:00,
2013-11-26 14:05:00,35.3,22.8,30.17,West,279,6.0,15.0,60,0.00,,,0.00,VWS V14.01,2013-11-26 20:05:00,
2013-11-26 14:10:00,35.5,23.0,30.17,West,273,4.0,15.0,60,0.00,,,0.00,VWS V14.01,2013-11-26 20:10:00,
2013-11-26 14:15:00,35.9,23.4,30.16,East,80,0.0,15.0,60,0.00,,,0.00,VWS V14.01,2013-11-26 20:15:00,
2013-11-26 14:20:00,36.0,23.1,30.17,WNW,298,0.0,15.0,59,0.00,,,0.00,VWS V14.01,2013-11-26 20:20:00,
2013-11-26 14:25:00,36.1,23.2,30.17,ESE,121,4.0,15.0,59,0.00,,,0.00,VWS V14.01,2013-11-26 20:25:00,
2013-11-26 14:30:00,36.0,22.7,30.17,WNW,288,6.0,15.0,58,0.00,,,0.00,VWS V14.01,2013-11-26 20:30:00,
2013-11-26 14:35:00,35.8,22.9,30.17,WNW,292,2.0,11.0,59,0.00,,,0.00,VWS V14.01,2013-11-26 20:35:00,
2013-11-26 14:40:00,35.8,22.5,30.17,West,271,1.0,12.0,58,0.00,,,0.00,VWS V14.01,2013-11-26 20:40:00,
2013-11-26 14:45:00,36.1,22.4,30.17,WNW,292,5.0,13.0,57,0.00,,,0.00,VWS V14.01,2013-11-26 20:45:00,
2013-11-26 14:50:00,36.4,21.8,30.17,NW,305,2.0,14.0,55,0.00,,,0.00,VWS V14.01,2013-11-26 20:50:00,
2013-11-26 14:55:00,36.9,22.7,30.17,West,266,4.0,14.0,56,0.00,,,0.00,VWS V14.01,2013-11-26 20:55:00,
2013-11-26 15:00:00,37.1,22.0,30.17,WNW,300,4.0,4.0,54,0.00,,,0.00,VWS V14.01,2013-11-26 21:00:00,
2013-11-26 15:05:00,37.0,21.5,30.17,NW,320,1.0,15.0,53,0.00,,,0.00,VWS V14.01,2013-11-26 21:05:00,
2013-11-26 15:10:00,37.0,21.5,30.17,West,277,1.0,15.0,53,0.00,,,0.00,VWS V14.01,2013-11-26 21:10:00,
2013-11-26 15:15:00,36.7,20.8,30.18,WNW,283,1.0,15.0,52,0.00,,,0.00,VWS V14.01,2013-11-26 21:15:00,
2013-11-26 15:20:00,36.2,20.3,30.18,WNW,297,2.0,15.0,52,0.00,,,0.00,VWS V14.01,2013-11-26 21:20:00,
2013-11-26 15:25:00,36.1,20.6,30.18,West,277,9.0,15.0,53,0.00,,,0.00,VWS V14.01,2013-11-26 21:25:00,
2013-11-26 15:30:00,35.8,19.5,30.18,WNW,295,4.0,5.0,51,0.00,,,0.00,VWS V14.01,2013-11-26 21:30:00,
2013-11-26 15:35:00,35.6,19.3,30.18,SE,127,5.0,7.0,51,0.00,,,0.00,VWS V14.01,2013-11-26 21:35:00,
2013-11-26 15:40:00,35.4,19.5,30.19,NW,319,12.0,12.0,52,0.00,,,0.00,VWS V14.01,2013-11-26 21:40:00,
2013-11-26 15:45:00,35.2,19.4,30.19,WNW,295,6.0,12.0,52,0.00,,,0.00,VWS V14.01,2013-11-26 21:45:00,
2013-11-26 15:50:00,35.0,19.2,30.19,WNW,290,6.0,14.0,52,0.00,,,0.00,VWS V14.01,2013-11-26 21:50:00,
2013-11-26 15:55:00,34.9,18.6,30.20,WNW,298,11.0,14.0,51,0.00,,,0.00,VWS V14.01,2013-11-26 21:55:00,
2013-11-26 16:00:00,34.5,17.3,30.20,North,355,2.0,4.0,49,0.00,,,0.00,VWS V14.01,2013-11-26 22:00:00,
2013-11-26 16:05:00,34.2,17.0,30.20,WSW,255,11.0,16.0,49,0.00,,,0.00,VWS V14.01,2013-11-26 22:05:00,
2013-11-26 16:10:00,33.8,17.1,30.20,NW,320,5.0,16.0,50,0.00,,,0.00,VWS V14.01,2013-11-26 22:10:00,
2013-11-26 16:15:00,33.6,17.4,30.20,WNW,285,0.0,16.0,51,0.00,,,0.00,VWS V14.01,2013-11-26 22:15:00,
2013-11-26 16:20:00,33.4,17.2,30.20,WSW,250,5.0,16.0,51,0.00,,,0.00,VWS V14.01,2013-11-26 22:20:00,
2013-11-26 16:25:00,33.0,16.9,30.21,NNW,334,2.0,16.0,51,0.00,,,0.00,VWS V14.01,2013-11-26 22:25:00,
2013-11-26 16:30:00,32.8,17.1,30.21,WNW,292,4.0,7.0,52,0.00,,,0.00,VWS V14.01,2013-11-26 22:30:00,
2013-11-26 16:35:00,32.4,17.2,30.21,NW,321,4.0,16.0,53,0.00,,,0.00,VWS V14.01,2013-11-26 22:35:00,
2013-11-26 16:40:00,32.1,17.3,30.22,WNW,300,5.0,16.0,54,0.00,,,0.00,VWS V14.01,2013-11-26 22:40:00,
2013-11-26 16:45:00,31.7,17.0,30.22,WNW,285,5.0,16.0,54,0.00,,,0.00,VWS V14.01,2013-11-26 22:45:00,
2013-11-26 16:50:00,31.3,17.0,30.22,WNW,292,6.0,16.0,55,0.00,,,0.00,VWS V14.01,2013-11-26 22:50:00,
2013-11-26 16:55:00,31.0,16.7,30.23,WNW,296,6.0,16.0,55,0.00,,,0.00,VWS V14.01,2013-11-26 22:55:00,
2013-11-26 17:00:00,30.8,16.5,30.23,WNW,296,1.0,6.0,55,0.00,,,0.00,VWS V14.01,2013-11-26 23:00:00,
2013-11-26 17:05:00,30.7,16.5,30.23,WNW,292,12.0,18.0,55,0.00,,,0.00,VWS V14.01,2013-11-26 23:05:00,
2013-11-26 17:10:00,30.6,16.4,30.23,WNW,296,1.0,18.0,55,0.00,,,0.00,VWS V14.01,2013-11-26 23:10:00,
2013-11-26 17:15:00,30.4,16.2,30.24,West,276,6.0,18.0,55,0.00,,,0.00,VWS V14.01,2013-11-26 23:15:00,
2013-11-26 17:20:00,30.3,15.2,30.24,NNW,338,2.0,18.0,53,0.00,,,0.00,VWS V14.01,2013-11-26 23:20:00,
2013-11-26 17:25:00,30.1,14.6,30.25,WNW,287,6.0,18.0,52,0.00,,,0.00,VWS V14.01,2013-11-26 23:25:00,
2013-11-26 17:30:00,29.9,14.4,30.25,WNW,283,5.0,6.0,52,0.00,,,0.00,VWS V14.01,2013-11-26 23:30:00,
2013-11-26 17:35:00,29.7,14.2,30.25,WNW,286,4.0,14.0,52,0.00,,,0.00,VWS V14.01,2013-11-26 23:35:00,
2013-11-26 17:41:00,29.4,14.0,30.25,WNW,282,2.0,15.0,52,0.00,,,0.00,VWS V14.01,2013-11-26 23:41:00,
2013-11-26 17:46:00,29.3,13.9,30.25,West,275,4.0,15.0,52,0.00,,,0.00,VWS V14.01,2013-11-26 23:46:00,
2013-11-26 17:51:00,29.0,13.1,30.26,NW,317,6.0,15.0,51,0.00,,,0.00,VWS V14.01,2013-11-26 23:51:00,
2013-11-26 17:56:00,29.0,13.6,30.26,WNW,290,2.0,15.0,52,0.00,,,0.00,VWS V14.01,2013-11-26 23:56:00,
2013-11-26 18:00:00,28.8,13.4,30.26,WNW,296,9.0,15.0,52,0.00,,,0.00,VWS V14.01,2013-11-27 00:00:00,
2013-11-26 18:01:00,28.8,13.4,30.26,WNW,300,9.0,9.0,52,0.00,,,0.00,VWS V14.01,2013-11-27 00:01:00,
2013-11-26 18:06:00,28.8,13.8,30.26,WNW,302,5.0,11.0,53,0.00,,,0.00,VWS V14.01,2013-11-27 00:06:00,
2013-11-26 18:11:00,28.7,14.2,30.26,West,274,8.0,12.0,54,0.00,,,0.00,VWS V14.01,2013-11-27 00:11:00,
2013-11-26 18:16:00,28.5,13.6,30.26,WNW,291,2.0,18.0,53,0.00,,,0.00,VWS V14.01,2013-11-27 00:16:00,
2013-11-26 18:21:00,28.3,13.4,30.27,West,265,3.0,18.0,53,0.00,,,0.00,VWS V14.01,2013-11-27 00:21:00,
2013-11-26 18:26:00,28.2,12.9,30.27,NW,311,5.0,18.0,52,0.00,,,0.00,VWS V14.01,2013-11-27 00:26:00,
2013-11-26 18:30:00,28.1,12.8,30.27,NW,315,11.0,18.0,52,0.00,,,0.00,VWS V14.01,2013-11-27 00:30:00,
2013-11-26 18:31:00,28.1,12.8,30.27,NW,315,11.0,12.0,52,0.00,,,0.00,VWS V14.01,2013-11-27 00:31:00,
2013-11-26 18:36:00,27.9,12.6,30.28,WNW,299,9.0,15.0,52,0.00,,,0.00,VWS V14.01,2013-11-27 00:36:00,
2013-11-26 18:41:00,27.8,12.9,30.27,West,279,2.0,15.0,53,0.00,,,0.00,VWS V14.01,2013-11-27 00:41:00,
2013-11-26 18:46:00,27.6,12.3,30.28,West,274,11.0,15.0,52,0.00,,,0.00,VWS V14.01,2013-11-27 00:46:00,
2013-11-26 18:51:00,27.5,12.6,30.28,WNW,302,11.0,15.0,53,0.00,,,0.00,VWS V14.01,2013-11-27 00:51:00,
2013-11-26 18:56:00,27.4,12.1,30.28,WNW,290,7.0,19.0,52,0.00,,,0.00,VWS V14.01,2013-11-27 00:56:00,
2013-11-26 19:00:00,27.3,12.4,30.27,WNW,286,11.0,19.0,53,0.00,,,0.00,VWS V14.01,2013-11-27 01:00:00,
2013-11-26 19:01:00,27.3,12.0,30.28,WNW,294,5.0,11.0,52,0.00,,,0.00,VWS V14.01,2013-11-27 01:01:00,
2013-11-26 19:06:00,27.2,12.4,30.28,NW,306,4.0,18.0,53,0.00,,,0.00,VWS V14.01,2013-11-27 01:06:00,
2013-11-26 19:11:00,27.1,12.2,30.28,WNW,298,7.0,18.0,53,0.00,,,0.00,VWS V14.01,2013-11-27 01:11:00,
2013-11-26 19:16:00,27.0,12.6,30.28,NW,325,2.0,18.0,54,0.00,,,0.00,VWS V14.01,2013-11-27 01:16:00,
2013-11-26 19:21:00,26.9,12.5,30.29,West,273,11.0,18.0,54,0.00,,,0.00,VWS V14.01,2013-11-27 01:21:00,
2013-11-26 19:26:00,26.8,12.8,30.28,North,349,2.0,18.0,55,0.00,,,0.00,VWS V14.01,2013-11-27 01:26:00,
2013-11-26 19:30:00,26.7,12.7,30.29,North,9,4.0,18.0,55,0.00,,,0.00,VWS V14.01,2013-11-27 01:30:00,
2013-11-26 19:31:00,26.7,12.7,30.29,NNW,345,5.0,5.0,55,0.00,,,0.00,VWS V14.01,2013-11-27 01:31:00,
2013-11-26 19:36:00,26.5,12.5,30.29,WNW,282,5.0,12.0,55,0.00,,,0.00,VWS V14.01,2013-11-27 01:36:00,
2013-11-26 19:41:00,26.4,12.8,30.29,West,271,9.0,26.0,56,0.00,,,0.00,VWS V14.01,2013-11-27 01:41:00,
2013-11-26 19:46:00,26.3,12.8,30.29,North,351,2.0,26.0,56,0.00,,,0.00,VWS V14.01,2013-11-27 01:46:00,
2013-11-26 19:51:00,26.2,12.7,30.30,WNW,299,4.0,26.0,56,0.00,,,0.00,VWS V14.01,2013-11-27 01:51:00,
2013-11-26 19:56:00,26.1,12.6,30.29,NNW,327,0.0,26.0,56,0.00,,,0.00,VWS V14.01,2013-11-27 01:56:00,
2013-11-26 20:00:00,26.1,12.6,30.30,NW,304,4.0,26.0,56,0.00,,,0.00,VWS V14.01,2013-11-27 02:00:00,
2013-11-26 20:01:00,26.0,12.5,30.30,NW,319,1.0,11.0,56,0.00,,,0.00,VWS V14.01,2013-11-27 02:01:00,
2013-11-26 20:06:00,26.0,12.5,30.30,NW,309,6.0,19.0,56,0.00,,,0.00,VWS V14.01,2013-11-27 02:06:00,
2013-11-26 20:11:00,26.0,12.5,30.30,WSW,248,11.0,19.0,56,0.00,,,0.00,VWS V14.01,2013-11-27 02:11:00,
2013-11-26 20:16:00,25.9,12.4,30.30,WNW,302,7.0,19.0,56,0.00,,,0.00,VWS V14.01,2013-11-27 02:16:00,
2013-11-26 20:21:00,25.8,12.3,30.30,WNW,294,11.0,19.0,56,0.00,,,0.00,VWS V14.01,2013-11-27 02:21:00,
2013-11-26 20:26:00,25.7,12.2,30.30,ENE,63,2.0,19.0,56,0.00,,,0.00,VWS V14.01,2013-11-27 02:26:00,
2013-11-26 20:30:00,25.7,12.2,30.30,North,355,0.0,19.0,56,0.00,,,0.00,VWS V14.01,2013-11-27 02:30:00,
2013-11-26 20:31:00,25.6,12.1,30.30,North,355,2.0,4.0,56,0.00,,,0.00,VWS V14.01,2013-11-27 02:31:00,
2013-11-26 20:36:00,25.6,12.1,30.30,NW,306,2.0,12.0,56,0.00,,,0.00,VWS V14.01,2013-11-27 02:36:00,
2013-11-26 20:41:00,25.5,12.0,30.30,WNW,294,4.0,12.0,56,0.00,,,0.00,VWS V14.01,2013-11-27 02:41:00,
2013-11-26 20:46:00,25.4,11.9,30.30,North,9,6.0,13.0,56,0.00,,,0.00,VWS V14.01,2013-11-27 02:46:00,
2013-11-26 20:51:00,25.4,11.9,30.29,WNW,284,7.0,14.0,56,0.00,,,0.00,VWS V14.01,2013-11-27 02:51:00,
2013-11-26 20:56:00,25.4,11.9,30.30,WNW,290,5.0,14.0,56,0.00,,,0.00,VWS V14.01,2013-11-27 02:56:00,
2013-11-26 21:00:00,25.3,11.8,30.30,WNW,288,5.0,14.0,56,0.00,,,0.00,VWS V14.01,2013-11-27 03:00:00,
2013-11-26 21:01:00,25.3,11.8,30.30,West,278,18.0,18.0,56,0.00,,,0.00,VWS V14.01,2013-11-27 03:01:00,
2013-11-26 21:06:00,25.3,11.8,30.30,WNW,286,4.0,18.0,56,0.00,,,0.00,VWS V14.01,2013-11-27 03:06:00,
2013-11-26 21:11:00,25.3,11.8,30.30,West,265,2.0,18.0,56,0.00,,,0.00,VWS V14.01,2013-11-27 03:11:00,
2013-11-26 21:16:00,25.2,11.7,30.30,West,261,3.0,18.0,56,0.00,,,0.00,VWS V14.01,2013-11-27 03:16:00,
2013-11-26 21:21:00,25.2,11.7,30.30,WNW,293,4.0,18.0,56,0.00,,,0.00,VWS V14.01,2013-11-27 03:21:00,
2013-11-26 21:26:00,25.1,11.6,30.31,ENE,63,1.0,18.0,56,0.00,,,0.00,VWS V14.01,2013-11-27 03:26:00,
2013-11-26 21:30:00,25.1,11.6,30.31,WNW,295,4.0,18.0,56,0.00,,,0.00,VWS V14.01,2013-11-27 03:30:00,
2013-11-26 21:31:00,25.1,11.6,30.31,WNW,296,0.0,4.0,56,0.00,,,0.00,VWS V14.01,2013-11-27 03:31:00,
2013-11-26 21:36:00,25.1,11.6,30.31,NNW,333,1.0,13.0,56,0.00,,,0.00,VWS V14.01,2013-11-27 03:36:00,
2013-11-26 21:41:00,25.2,11.7,30.31,WNW,292,0.0,13.0,56,0.00,,,0.00,VWS V14.01,2013-11-27 03:41:00,
2013-11-26 21:46:00,25.2,11.7,30.31,WNW,282,4.0,13.0,56,0.00,,,0.00,VWS V14.01,2013-11-27 03:46:00,
2013-11-26 21:51:00,25.2,11.7,30.31,West,276,4.0,13.0,56,0.00,,,0.00,VWS V14.01,2013-11-27 03:51:00,
2013-11-26 21:56:00,25.1,11.6,30.31,East,87,1.0,13.0,56,0.00,,,0.00,VWS V14.01,2013-11-27 03:56:00,
2013-11-26 22:00:00,25.1,11.6,30.31,SSW,206,3.0,13.0,56,0.00,,,0.00,VWS V14.01,2013-11-27 04:00:00,
2013-11-26 22:01:00,25.1,11.6,30.31,WNW,297,2.0,9.0,56,0.00,,,0.00,VWS V14.01,2013-11-27 04:01:00,
2013-11-26 22:06:00,25.1,11.2,30.31,NW,304,2.0,9.0,55,0.00,,,0.00,VWS V14.01,2013-11-27 04:06:00,
2013-11-26 22:11:00,25.0,10.7,30.32,West,274,7.0,13.0,54,0.00,,,0.00,VWS V14.01,2013-11-27 04:11:00,
2013-11-26 22:16:00,24.9,10.6,30.32,NW,309,4.0,13.0,54,0.00,,,0.00,VWS V14.01,2013-11-27 04:16:00,
2013-11-26 22:21:00,24.7,10.9,30.32,West,267,7.0,13.0,55,0.00,,,0.00,VWS V14.01,2013-11-27 04:21:00,
2013-11-26 22:26:00,24.5,11.1,30.32,NNE,31,0.0,13.0,56,0.00,,,0.00,VWS V14.01,2013-11-27 04:26:00,
2013-11-26 22:30:00,24.4,11.0,30.32,SW,223,2.0,13.0,56,0.00,,,0.00,VWS V14.01,2013-11-27 04:30:00,
2013-11-26 22:31:00,24.4,11.0,30.32,SW,223,2.0,3.0,56,0.00,,,0.00,VWS V14.01,2013-11-27 04:31:00,
2013-11-26 22:36:00,24.2,10.8,30.32,WSW,240,1.0,6.0,56,0.00,,,0.00,VWS V14.01,2013-11-27 04:36:00,
2013-11-26 22:41:00,24.0,11.0,30.33,West,280,0.0,9.0,57,0.00,,,0.00,VWS V14.01,2013-11-27 04:41:00,
2013-11-26 22:46:00,23.9,10.9,30.32,SSE,158,2.0,9.0,57,0.00,,,0.00,VWS V14.01,2013-11-27 04:46:00,
2013-11-26 22:51:00,23.6,10.6,30.33,West,271,4.0,9.0,57,0.00,,,0.00,VWS V14.01,2013-11-27 04:51:00,
2013-11-26 22:56:00,23.5,10.5,30.33,WNW,284,7.0,12.0,57,0.00,,,0.00,VWS V14.01,2013-11-27 04:56:00,
2013-11-26 23:00:00,23.4,10.0,30.33,WSW,248,3.0,14.0,56,0.00,,,0.00,VWS V14.01,2013-11-27 05:00:00,
2013-11-26 23:01:00,23.4,10.0,30.33,West,260,4.0,5.0,56,0.00,,,0.00,VWS V14.01,2013-11-27 05:01:00,
2013-11-26 23:06:00,23.2,10.2,30.33,NNW,344,4.0,12.0,57,0.00,,,0.00,VWS V14.01,2013-11-27 05:06:00,
2013-11-26 23:11:00,23.1,10.1,30.33,WSW,249,0.0,12.0,57,0.00,,,0.00,VWS V14.01,2013-11-27 05:11:00,
2013-11-26 23:16:00,23.0,10.1,30.33,WNW,283,1.0,12.0,57,0.00,,,0.00,VWS V14.01,2013-11-27 05:16:00,
2013-11-26 23:21:00,23.0,10.4,30.33,WNW,291,5.0,12.0,58,0.00,,,0.00,VWS V14.01,2013-11-27 05:21:00,
2013-11-26 23:26:00,22.9,10.3,30.33,WNW,288,8.0,12.0,58,0.00,,,0.00,VWS V14.01,2013-11-27 05:26:00,
2013-11-26 23:30:00,22.9,10.4,30.33,WNW,298,5.0,12.0,58,0.00,,,0.00,VWS V14.01,2013-11-27 05:30:00,
2013-11-26 23:31:00,22.9,10.3,30.33,WNW,298,4.0,7.0,58,0.00,,,0.00,VWS V14.01,2013-11-27 05:31:00,
2013-11-26 23:36:00,22.8,10.6,30.33,WNW,301,2.0,11.0,59,0.00,,,0.00,VWS V14.01,2013-11-27 05:36:00,
2013-11-26 23:41:00,22.7,10.5,30.33,NW,311,0.0,11.0,59,0.00,,,0.00,VWS V14.01,2013-11-27 05:41:00,
2013-11-26 23:46:00,22.6,10.4,30.33,WNW,283,4.0,11.0,59,0.00,,,0.00,VWS V14.01,2013-11-27 05:46:00,
2013-11-26 23:51:00,22.5,10.4,30.33,West,279,1.0,13.0,59,0.00,,,0.00,VWS V14.01,2013-11-27 05:51:00,
2013-11-26 23:56:00,22.5,10.4,30.33,WNW,296,2.0,13.0,59,0.00,,,0.00,VWS V14.01,2013-11-27 05:56:00,